Regional Weather Roundup
Issued by NWS

Home | Current Version | Previous Version | Graphics & Text | Print | Product List | Glossary On
Versions: 1 2 3 4 5 6 7 8 9 10 11 12 13 14 15 16 17 18 19 20 21 22 23 24 25 26 27 28 29 30 31 32 33 34 35 36 37 38 39 40 41 42 43 44 45 46 47 48 49 50
000
ASUS45 KCYS 050510
RWRWY

WYOMING REGIONAL WEATHER ROUNDUP
NATIONAL WEATHER SERVICE CHEYENNE WY
1100 PM MDT TUE AUG 04 2015

NOTE:  "FAIR" INDICATES FEW OR NO CLOUDS BELOW 12,000 FEET
WITH NO SIGNIFICANT WEATHER AND/OR OBSTRUCTIONS TO VISIBILITY.

WYZ001-050600-
YELLOWSTONE NATIONAL PARK

CITY           SKY/WX    TMP DP  RH WIND       PRES   REMARKS
LK YELLOWSTONE   N/A     45  44  97 CALM      30.32R
W YELLOWSTONE  NOT AVBL

$$
WYZ002>013-054>058-071-098>099-050600-
NORTHERN WYOMING

CITY           SKY/WX    TMP DP  RH WIND       PRES   REMARKS
JACKSON        NOT AVBL
CODY           FAIR      61  46  59 SW10      30.12F
GREYBULL       FAIR      67  54  63 E3        30.04F
WORLAND        FAIR      62  55  77 CALM      30.08R
SHERIDAN       FAIR      64  55  72 S10       30.04F
BUFFALO        LGT RAIN  63  55  75 W9        30.14R
GILLETTE       FAIR      63  55  75 CALM      30.06R
HULETT         CLOUDY    63  54  72 S5        30.04R
NEWCASTLE      FAIR      61  59  94 CALM      30.06S

$$
WYZ014>020-022>026-101>103-050600-
CENTRAL WYOMING

CITY           SKY/WX    TMP DP  RH WIND       PRES   REMARKS
BIG PINEY      FAIR      58  47  66 N10       30.26S
PINEDALE       FAIR      54  45  71 W3        30.29R
DUBOIS         FAIR      54  39  58 W3        30.25S
LANDER         FAIR      68  49  50 NW10      30.13R
RIVERTON       FAIR      70  47  43 N12       30.13R
CASPER         FAIR      63  54  72 E7        30.13R
DOUGLAS        FAIR      59  53  80 SW3       30.11F

$$
WYZ021-027>030-104>119-050600-
SOUTHERN WYOMING

CITY           SKY/WX    TMP DP  RH WIND       PRES   REMARKS
EVANSTON       FAIR      63  39  41 NE5       30.25R
KEMMERER       FAIR      59  34  38 N10       30.28R
FORT BRIDGER   CLEAR     66  39  37 CALM      30.28R
ROCK SPRINGS   FAIR      67  38  34 N7        30.24R
DIXON          FAIR      60  38  44 E5        30.27R
RAWLINS        FAIR      63  40  42 W5        30.24R
SARATOGA       MOCLDY    63  34  34 SW9       30.27S
LARAMIE        FAIR      55  40  56 SW7       30.27R
CHEYENNE       FAIR      59  54  83 S10       30.21R
TORRINGTON     FAIR      63  60  90 SE6       30.07R
PINE BLUFFS    FAIR      57  54  88 W5        30.15S

$$


USA.gov is the U.S. government's official web portal to all federal, state and local government web resources and services.